TimeCDT,TemperatureF,Dew PointF,Humidity,Sea Level PressureIn,VisibilityMPH,Wind Direction,Wind SpeedMPH,Gust SpeedMPH,PrecipitationIn,Events,Conditions,WindDirDegrees,DateUTC
12:53 AM,16.0,10.9,81,30.04,10.0,North,11.5,-,N/A,,Overcast,360,2013-03-11 05:53:00
1:53 AM,18.0,12.0,78,30.03,10.0,NNE,11.5,-,N/A,,Overcast,20,2013-03-11 06:53:00
2:53 AM,17.1,10.9,77,30.01,10.0,North,10.4,-,N/A,,Overcast,360,2013-03-11 07:53:00
3:35 AM,15.8,8.6,73,29.90,10.0,NNE,6.9,-,N/A,,Scattered Clouds,20,2013-03-11 08:35:00
3:53 AM,14.0,8.1,77,29.98,10.0,North,8.1,-,N/A,,Clear,360,2013-03-11 08:53:00
5:53 AM,6.1,1.9,83,29.97,10.0,NNW,8.1,-,N/A,,Clear,330,2013-03-11 10:53:00
6:53 AM,6.1,1.9,83,29.96,10.0,North,6.9,-,N/A,,Clear,350,2013-03-11 11:53:00
7:53 AM,5.0,1.9,87,29.96,10.0,NNW,5.8,-,N/A,,Clear,340,2013-03-11 12:53:00
8:53 AM,8.1,3.0,80,29.96,10.0,North,4.6,-,N/A,,Clear,350,2013-03-11 13:53:00
9:53 AM,12.9,8.1,81,29.94,10.0,North,4.6,-,N/A,,Clear,360,2013-03-11 14:53:00
10:53 AM,18.0,12.0,78,29.93,10.0,North,4.6,-,N/A,,Clear,350,2013-03-11 15:53:00
11:53 AM,21.0,14.0,74,29.91,10.0,NNW,6.9,-,N/A,,Mostly Cloudy,340,2013-03-11 16:53:00
12:53 PM,21.9,14.0,72,29.90,10.0,North,5.8,-,N/A,,Overcast,360,2013-03-11 17:53:00
1:53 PM,21.9,14.0,72,29.88,10.0,NW,6.9,-,N/A,,Overcast,310,2013-03-11 18:53:00
2:53 PM,21.0,14.0,74,29.86,10.0,West,11.5,-,N/A,,Overcast,280,2013-03-11 19:53:00
3:53 PM,21.9,15.1,75,29.87,10.0,WNW,12.7,-,0.00,,Overcast,300,2013-03-11 20:53:00
4:53 PM,19.9,14.0,78,29.87,10.0,WNW,9.2,-,N/A,,Overcast,290,2013-03-11 21:53:00
5:53 PM,19.9,12.9,74,29.88,10.0,WNW,10.4,-,N/A,,Overcast,290,2013-03-11 22:53:00
6:53 PM,19.0,10.9,71,29.89,10.0,WNW,11.5,-,N/A,,Mostly Cloudy,290,2013-03-11 23:53:00
7:53 PM,18.0,10.0,71,29.90,10.0,WNW,8.1,-,N/A,,Overcast,290,2013-03-12 00:53:00
8:53 PM,18.0,10.9,74,29.90,10.0,West,12.7,-,N/A,,Overcast,280,2013-03-12 01:53:00
9:53 PM,18.0,10.9,74,29.90,10.0,WNW,6.9,-,N/A,,Overcast,290,2013-03-12 02:53:00
10:53 PM,18.0,12.0,78,29.90,10.0,WNW,4.6,-,N/A,,Overcast,290,2013-03-12 03:53:00
11:40 PM,19.4,12.2,74,29.82,10.0,WNW,4.6,-,N/A,,Overcast,300,2013-03-12 04:40:00
11:53 PM,19.0,12.9,77,29.90,10.0,NW,4.6,-,N/A,,Overcast,320,2013-03-12 04:53:00